EDT,Max TemperatureF,Mean TemperatureF,Min TemperatureF,Max Dew PointF,MeanDew PointF,Min DewpointF,Max Humidity, Mean Humidity, Min Humidity, Max Sea Level PressureIn, Mean Sea Level PressureIn, Min Sea Level PressureIn, Max VisibilityMiles, Mean VisibilityMiles, Min VisibilityMiles, Max Wind SpeedMPH, Mean Wind SpeedMPH, Max Gust SpeedMPH,PrecipitationIn, CloudCover, Events, WindDirDegrees
2013-3-1,56,46,36,33,29,28,79,57,35,29.92,29.87,29.82,10,10,10,16,8,21,0.00,2,,306
2013-3-2,51,42,33,33,29,25,96,68,39,29.91,29.87,29.81,10,10,10,12,4,14,T,5,,312
2013-3-3,50,41,32,31,23,20,76,55,34,29.97,29.90,29.85,10,10,10,18,9,24,0.00,2,,308
2013-3-4,51,40,29,27,19,14,75,49,22,30.12,30.07,29.98,10,10,10,24,9,33,0.00,0,,296
2013-3-5,66,50,33,55,36,25,82,57,31,30.13,29.97,29.64,10,10,6,25,9,37,0.07,4,Rain,204
2013-3-6,61,52,43,54,33,23,87,60,33,29.97,29.71,29.55,10,10,10,37,22,49,T,6,,284
2013-3-7,58,48,37,31,29,27,70,52,33,30.20,30.11,30.01,10,10,10,22,12,31,0.00,0,,321
2013-3-8,57,45,32,28,26,23,75,51,27,30.25,30.19,30.12,10,10,10,24,11,31,0.00,0,,330
2013-3-9,65,50,34,38,31,27,86,59,31,30.30,30.26,30.22,10,10,10,17,6,22,0.00,0,,348
2013-3-10,62,47,31,44,29,10,92,53,14,30.32,30.28,30.23,10,10,8,15,4,17,0.00,0,,86
2013-3-11,70,56,42,55,49,41,100,76,51,30.23,30.13,29.97,10,8,1,20,7,26,T,5,,114
2013-3-12,71,64,56,63,60,55,93,83,73,29.96,29.87,29.78,10,8,1,16,8,23,0.49,6,Rain,198
2013-3-13,63,54,44,48,33,25,72,49,25,30.08,30.00,29.91,10,10,10,18,10,24,0.00,2,,318
2013-3-14,54,44,34,29,21,17,60,43,26,30.25,30.17,30.09,10,10,10,21,10,29,0.00,0,,307
2013-3-15,63,47,31,41,29,17,92,57,22,30.21,30.11,30.00,10,10,10,18,7,23,0.00,0,,239
2013-3-16,79,67,55,48,45,42,64,47,30,29.98,29.87,29.77,10,10,10,23,14,31,0.00,0,,222
2013-3-17,75,63,50,50,47,44,83,62,41,30.13,30.00,29.89,10,10,7,21,10,29,0.00,4,,108
2013-3-18,64,56,48,53,47,42,93,77,60,30.14,30.04,29.90,10,10,9,13,5,16,0.00,6,,58
2013-3-19,70,59,48,55,49,31,93,62,31,29.99,29.87,29.75,10,8,1,21,9,26,0.65,5,Rain-Thunderstorm,305
2013-3-20,59,48,37,36,25,15,79,49,19,30.12,29.99,29.82,10,10,10,14,4,21,0.00,3,,16
2013-3-21,54,45,35,34,25,14,92,57,22,29.96,29.79,29.70,10,10,10,24,10,32,0.00,0,,310
2013-3-22,54,43,31,32,18,12,62,43,24,30.11,30.04,29.98,10,10,10,15,7,20,0.00,1,,289
2013-3-23,57,45,33,41,35,29,92,68,44,30.06,30.01,29.92,10,10,7,9,2,10,0.02,3,Rain,245
2013-3-24,58,50,41,56,47,39,100,88,76,29.91,29.66,29.42,10,5,2,31,10,44,1.13,8,Rain,47
2013-3-25,53,48,42,41,35,26,96,67,38,29.85,29.64,29.55,10,10,4,28,16,37,0.00,7,,260
2013-3-26,51,43,34,31,27,24,70,54,38,30.11,29.96,29.87,10,10,10,20,10,26,0.00,3,,279
2013-3-27,57,46,35,30,25,22,70,48,25,30.22,30.16,30.12,10,10,10,23,11,29,0.00,0,,306
2013-3-28,58,46,33,32,25,23,76,51,25,30.27,30.21,30.15,10,10,10,22,7,36,0.00,0,,317
2013-3-29,62,47,32,40,30,24,85,55,25,30.35,30.27,30.20,10,10,10,18,6,22,0.00,0,,278
2013-3-30,63,55,47,47,42,37,93,66,39,30.27,30.20,30.14,10,10,10,13,6,16,0.04,6,Rain,198
2013-3-31,72,60,48,56,52,44,86,68,49,30.13,29.97,29.88,10,10,10,24,10,32,0.04,5,Rain-Thunderstorm,198